Regional Weather Roundup
Issued by NWS Green Bay, WI

Home | Current Version | Previous Version | Graphics & Text | Print | Product List | Glossary Off
Versions: 1 2 3 4 5 6 7 8 9 10 11 12 13 14 15 16 17 18 19 20 21 22 23 24 25 26 27 28 29 30 31 32 33 34 35 36 37 38 39 40 41 42 43 44 45 46 47 48 49 50

000
ASUS43 KGRB 241210
RWRGRB

NORTH-CENTRAL AND NORTHEAST WISCONSIN REGIONAL WEATHER ROUNDUP
NATIONAL WEATHER SERVICE GREEN BAY WI
700 AM CDT FRI OCT 24 2014

WIZ005-009-010>012-018-019-241300-
NORTH CENTRAL WISCONSIN

CITY           SKY/WX    TMP DP  RH WIND       PRES   REMARKS
IRONWOOD       CLOUDY    46  46 100 S8        29.90F
MANITOWISH WTR FOG       44  44 100 S6        29.96F VSB 1
ARBOR VITAE    FOG       44  43  97 S6        29.97F VSB 1/2
EAGLE RIVER    FOG       43  43 100 CALM      29.97F VSB 1/2
LAND O LAKES   FOG       44  44 100 S6        29.97F VSB 1/2
RHINELANDER    FOG       43  43 100 S5        29.99F VSB 1/4
PHILLIPS       FOG       45  45 100 S5        29.96F VSB 1
ANTIGO         FOG       42  42 100 W6        30.01S VSB 1/4
TOMAHAWK       FOG       43  42  97 CALM      29.99F VSB 3/4
MERRILL        FOG       44  44 100 CALM      30.00F VSB 1/2
$$

WIZ013-073-241300-
NORTHEAST WISCONSIN

CITY           SKY/WX    TMP DP  RH WIND       PRES   REMARKS
IRON MOUNTAIN  CLOUDY    43  42  97 W6        29.98S FOG
MARINETTE      CLOUDY    46  45  93 W5        30.00F
OCONTO         CLOUDY    47  47 100 W5        30.01S
$$

WIZ017-030-035>037-045-241300-
CENTRAL WISCONSIN

CITY           SKY/WX    TMP DP  RH WIND       PRES   REMARKS
MEDFORD        FOG       43  43 100 S6        29.98F VSB 1/4
WAUSAU         FOG       44  44 100 W5        30.00S VSB 3/4
MOSINEE        FOG       45  45 100 S3        30.02S VSB 1/4
MARSHFIELD     FOG       46  45  96 S3        30.00S VSB 1/4
WISC RAPIDS    FOG       46  46 100 S5        30.04R VSB 1/2
STEVENS POINT  FOG       44  44 100 W3        30.02S VSB 1/2
WAUPACA        CLOUDY    49  47  96 W3        30.03S FOG
SHAWANO        CLOUDY    47  46  95 W5        30.02S FOG
CLINTONVILLE   CLOUDY    46  45  93 W5        30.02S
$$

WIZ038-039-048-051-241300-
FOX VALLEY

CITY           SKY/WX    TMP DP  RH WIND       PRES   REMARKS
NWS GREEN BAY  CLOUDY    48  47  96 SW5       30.02S FOG
APPLETON         N/A     46  46 100 VRB5      30.03S FOG
OSHKOSH        CLOUDY    48  48 100 VRB3      30.02F FOG
FOND DU LAC    CLOUDY    48  46  93 SW3       30.03F FOG
$$

WIZ022-050-052-241300-
EAST CENTRAL WISCONSIN

CITY           SKY/WX    TMP DP  RH WIND       PRES   REMARKS
STURGEON BAY   CLOUDY    48  45  87 W6        30.02S
MANITOWOC      CLOUDY    49  48  97 CALM      30.03S FOG
SHEBOYGAN      CLOUDY    48  47  96 W5        30.03S FOG
$$

LMZ563-521-522-541>543-241300-
LAKESHORE

STATION/POSITION TIME  TEMP    WIND        PRES    VSBY  WAVE
                       AIR SEA DIR/SP/G                  HT/PER
                 (UTC) (F)     (DEG/KT/KT) (MB)    (MI)  (FT/S)
SHEBOYGAN LKSHOR 1200   49 50  260/  5/  6 1017.4R
KEWAUNEE LKSHORE 1200   49      CALM  /  1 1015.6F
ALGOMA MARINA    1200          270/  2/  3   N/A
NORTHPORT PIER   1200   49     270/  2/  5 1016.3R
N MID LAKE BUOY  1200   50 51  230/  8/  8 1015.9F         2/ 5
SISTER BAY LKSHO 1100             CALM       N/A
CHAMBERS ISLAND  1200   49     220/  2/  7 1015.9F
MENOMINEE LKSHOR 1200   48     240/  6/ 10 1016.7R
$$



USA.gov is the U.S. government's official web portal to all federal, state and local government web resources and services.